This demonstration page uses our WeatherBlox Daily Observations layout. Learn more.

41.55636, -103.73856

Hourly Observations for June 21, 2017

Temp ( °F °C ) Dew Point ( °F °C ) Humidity (%) Winds ( mph kmh ) Pressure ( in mb ) Visibility ( mi km ) Precip ( " mm )
12:53 am 00:53 Clear 70 21.1 50 10 49 49 ESE 5 7 29.75 1008 10 16.0934 0 0
1:53 am 01:53 Clear 64 17.8 52 11.1 65 65 NW 6 9 29.75 1007 10 16.0934 0 0
2:53 am 02:53 Clear 63 17.2 52 11.1 68 68 N 6 9 29.73 1007 10 16.0934 0 0
3:53 am 03:53 Clear 64 17.8 50 10 60 60 N 5 7 29.72 1007 10 16.0934 0 0
4:53 am 04:53 Clear 64 17.8 49 9.4 58 58 Calm 29.72 1007 10 16.0934 0 0
5:53 am 05:53 Sunny 62 16.7 49 9.4 62 62 NNW 10 17 29.73 1007 10 16.0934 0 0
6:53 am 06:53 Sunny 68 20 52 11.1 57 57 W 5 7 29.73 1007 10 16.0934 0 0
7:53 am 07:53 Sunny 74 23.3 52 11.1 46 46 VRB 5 7 29.75 1007 10 16.0934 0 0
8:53 am 08:53 Sunny 81 27.2 49 9.4 33 33 WNW 14 22 29.74 1007 10 16.0934 0 0
9:53 am 09:53 Sunny 87 30.6 51 10.6 29 29 WNW 15 24 29.73 1007 10 16.0934 0 0
10:53 am 10:53 Sunny 85 29.4 50 10 30 30 W 10 17 29.74 1007 10 16.0934 0 0
11:53 am 11:53 Sunny 93 33.9 48 8.9 21 21 W 12 19 29.72 1006 10 16.0934 0 0
12:53 pm 12:53 Sunny 91 32.8 48 8.9 23 23 NW 12 19 29.72 1006 10 16.0934 0 0
1:53 pm 13:53 Sunny 96 35.6 47 8.3 19 19 NW 16 26 29.71 1006 10 16.0934 0 0
2:53 pm 14:53 Sunny 96 35.6 43 6.1 16 16 WNW 9 15 29.69 1005 10 16.0934 0 0
3:53 pm 15:53 Sunny 97 36.1 43 6.1 16 16 WNW 9 15 29.66 1004 10 16.0934 0 0
4:53 pm 16:53 Sunny 98 36.7 39 3.9 13 13 NNW 6 9 29.64 1004 10 16.0934 0 0
5:53 pm 17:53 Sunny 97 36.1 41 5 14 14 N 6 9 29.62 1003 10 16.0934 0 0
6:53 pm 18:53 Sunny 91 32.8 49 9.4 24 24 ENE 9 15 29.61 1003 10 16.0934 0 0
7:53 pm 19:53 Sunny 83 28.3 50 10 32 32 ENE 8 13 29.61 1003 10 16.0934 0 0
8:53 pm 20:53 Clear 80 26.7 53 11.7 39 39 ENE 7 11 29.61 1003 10 16.0934 0 0
9:53 pm 21:53 Clear 77 25 53 11.7 43 43 ESE 5 7 29.62 1003 10 16.0934 0 0
10:53 pm 22:53 Clear 71 21.7 54 12.2 55 55 WSW 3 6 29.62 1003 10 16.0934 0 0
11:53 pm 23:53 Clear 71 21.7 53 11.7 53 53 ESE 7 11 29.6 1002 10 16.0934 0 0

Powered by AerisWeather